{"data":{"norad_id":54763,"intl_designator":"2022-175F","name":"STARLINK-5191","alt_names":[],"object_type":"PAYLOAD","status":"ACTIVE","operator":null,"country":"US","launch_date":"2022-12-17","launch_site_code":"AFETR","launch_vehicle":null,"mission":null,"orbit_class":"UNKNOWN","rcs_meters":null,"size_class":null,"mass_kg":null,"dimensions":null,"purposes":["comms"],"wikipedia_slug":null,"has_3d_model":false,"image_url":null,"decayed_at":null,"tle_current":{"epoch":"2026-05-25T01:01:58.764864Z","epoch_age_seconds":71058,"freshness":"FRESH","line1":"1 54763U 22175F   26145.04304126 -.00000546  00000+0 -16212-4 0  9992","line2":"2 54763  53.2151  61.5047 0001690  84.9787 275.1398 15.08846045191441","mean_motion":15.08846045,"eccentricity":0.000169,"inclination_deg":53.2151,"raan_deg":61.5047,"arg_perigee_deg":84.9787,"mean_anomaly_deg":275.1398,"bstar":-1.6212e-5,"rev_number":19144,"period_min":95.437172319327,"perigee_km":538.55579321602,"apogee_km":540.89403054224,"semimajor_km":6917.8619118791,"source":"CELESTRAK","updated_at":"2026-05-25T13:38:17.688944Z"}}}